User: anonymous   Login
Location: West Cummington
(42.4920°N, 72.9680°W)
Time: 03:55:36
(UTC-04:00)
Language:

Cosmos 841 Rocket - Orbit

View from above orbital plane
View from above orbital plane
View from above satellite
View from above satellite

Ground track
Ground track

The orbit data is extracted from the following two-line orbital elements,

1 09023U 76069B   17228.43448483 -.00000005  00000-0  69148-5 0  9999
2 09023  74.0452 345.5774 0016836 138.5359 221.7077 14.39549264153496
Epoch (UTC): 16 August 2017 10:25:39
Eccentricity: 0.0016836
inclination: 74.0452°
perigee height: 748 km
apogee height: 772 km
right ascension of ascending node: 345.5774°
argument of perigee: 138.5359°
revolutions per day: 14.39549264
mean anomaly at epoch: 221.7077°
orbit number at epoch: 15349

The dashed part of the orbit path shows where the satellite is in the earth's shadow,  

DLR